Year,Month,Day,Hour,Minute,Value (Times are PST for windspeed in km/hr)
2012,01,20,00,00,1.80
2012,01,20,00,01,1.30
2012,01,20,00,02,1.20
2012,01,20,00,03,0.80
2012,01,20,00,04,0.80
2012,01,20,00,05,0.30
2012,01,20,00,06,0.00
2012,01,20,00,07,0.00
2012,01,20,00,08,1.90
2012,01,20,00,09,0.30
2012,01,20,00,10,1.40
2012,01,20,00,11,0.10
2012,01,20,00,12,0.20
2012,01,20,00,13,1.90
2012,01,20,00,14,2.90
2012,01,20,00,15,0.80
2012,01,20,00,16,0.10
2012,01,20,00,17,0.10
2012,01,20,00,18,2.20
2012,01,20,00,19,0.30
2012,01,20,00,20,0.80
2012,01,20,00,21,1.70
2012,01,20,00,22,1.00
2012,01,20,00,23,4.40
2012,01,20,00,24,2.80
2012,01,20,00,25,4.40
2012,01,20,00,26,5.30
2012,01,20,00,27,8.30
2012,01,20,00,28,6.00
2012,01,20,00,29,2.80
2012,01,20,00,30,0.80
2012,01,20,00,31,0.10
2012,01,20,00,32,0.10
2012,01,20,00,33,2.00
2012,01,20,00,34,2.90
2012,01,20,00,35,0.40
2012,01,20,00,36,2.40
2012,01,20,00,37,1.40
2012,01,20,00,38,1.20
2012,01,20,00,39,1.60
2012,01,20,00,40,2.30
2012,01,20,00,41,1.00
2012,01,20,00,42,1.60
2012,01,20,00,43,4.10
2012,01,20,00,44,3.60
2012,01,20,00,45,2.50
2012,01,20,00,46,0.40
2012,01,20,00,47,3.10
2012,01,20,00,48,3.10
2012,01,20,00,49,2.40
2012,01,20,00,50,2.50
2012,01,20,00,51,3.10
2012,01,20,00,52,7.30
2012,01,20,00,53,2.20
2012,01,20,00,54,1.50
2012,01,20,00,55,0.80
2012,01,20,00,56,0.00
2012,01,20,00,57,0.20
2012,01,20,00,58,0.30
2012,01,20,00,59,0.00
2012,01,20,01,00,0.10
2012,01,20,01,01,0.10
2012,01,20,01,02,0.30
2012,01,20,01,03,0.10
2012,01,20,01,04,0.10
2012,01,20,01,05,0.20
2012,01,20,01,06,1.50
2012,01,20,01,07,2.80
2012,01,20,01,08,5.10
2012,01,20,01,09,3.10
2012,01,20,01,10,2.20
2012,01,20,01,11,2.60
2012,01,20,01,12,0.10
2012,01,20,01,13,0.10
2012,01,20,01,14,1.70
2012,01,20,01,15,3.40
2012,01,20,01,16,3.40
2012,01,20,01,17,0.50
2012,01,20,01,18,0.20
2012,01,20,01,19,1.20
2012,01,20,01,20,5.70
2012,01,20,01,21,5.90
2012,01,20,01,22,6.40
2012,01,20,01,23,2.60
2012,01,20,01,24,6.70
2012,01,20,01,25,8.20
2012,01,20,01,26,7.80
2012,01,20,01,27,6.10
2012,01,20,01,28,6.10
2012,01,20,01,29,3.30
2012,01,20,01,30,3.40
2012,01,20,01,31,3.80
2012,01,20,01,32,6.30
2012,01,20,01,33,6.80
2012,01,20,01,34,9.00
2012,01,20,01,35,4.00
2012,01,20,01,36,7.40
2012,01,20,01,37,2.50
2012,01,20,01,38,5.10
2012,01,20,01,39,4.00
2012,01,20,01,40,5.90
2012,01,20,01,41,5.60
2012,01,20,01,42,7.20
2012,01,20,01,43,8.70
2012,01,20,01,44,6.70
2012,01,20,01,45,5.40
2012,01,20,01,46,7.10
2012,01,20,01,47,6.70
2012,01,20,01,48,5.70
2012,01,20,01,49,9.50
2012,01,20,01,50,8.30
2012,01,20,01,51,7.70
2012,01,20,01,52,6.70
2012,01,20,01,53,7.80
2012,01,20,01,54,7.60
2012,01,20,01,55,2.80
2012,01,20,01,56,2.70
2012,01,20,01,57,4.30
2012,01,20,01,58,8.70
2012,01,20,01,59,5.70
2012,01,20,02,00,3.30
2012,01,20,02,01,4.60
2012,01,20,02,02,5.10
2012,01,20,02,03,5.60
2012,01,20,02,04,1.20
2012,01,20,02,05,3.90
2012,01,20,02,06,9.30
2012,01,20,02,07,9.10
2012,01,20,02,08,8.60
2012,01,20,02,09,4.70
2012,01,20,02,10,8.80
2012,01,20,02,11,5.90
2012,01,20,02,12,8.70
2012,01,20,02,13,3.30
2012,01,20,02,14,7.30
2012,01,20,02,15,5.00
2012,01,20,02,16,1.60
2012,01,20,02,17,6.70
2012,01,20,02,18,7.70
2012,01,20,02,19,11.60
2012,01,20,02,20,7.20
2012,01,20,02,21,7.10
2012,01,20,02,22,4.00
2012,01,20,02,23,10.00
2012,01,20,02,24,7.40
2012,01,20,02,25,3.40
2012,01,20,02,26,7.80
2012,01,20,02,27,7.30
2012,01,20,02,28,13.90
2012,01,20,02,29,8.60
2012,01,20,02,30,5.80
2012,01,20,02,31,7.00
2012,01,20,02,32,12.00
2012,01,20,02,33,9.40
2012,01,20,02,34,7.90
2012,01,20,02,35,6.70
2012,01,20,02,36,13.00
2012,01,20,02,37,12.80
2012,01,20,02,38,10.50
2012,01,20,02,39,8.10
2012,01,20,02,40,10.30
2012,01,20,02,41,11.20
2012,01,20,02,42,8.80
2012,01,20,02,43,11.30
2012,01,20,02,44,9.10
2012,01,20,02,45,8.20
2012,01,20,02,46,6.70
2012,01,20,02,47,6.70
2012,01,20,02,48,16.50
2012,01,20,02,49,9.10
2012,01,20,02,50,5.00
2012,01,20,02,51,3.20
2012,01,20,02,52,4.20
2012,01,20,02,53,10.20
2012,01,20,02,54,11.70
2012,01,20,02,55,10.50
2012,01,20,02,56,10.20
2012,01,20,02,57,7.10
2012,01,20,02,58,7.80
2012,01,20,02,59,10.50
2012,01,20,03,00,7.60
2012,01,20,03,01,8.40
2012,01,20,03,02,9.90
2012,01,20,03,06,4.90
2012,01,20,03,07,7.10
2012,01,20,03,08,6.40
2012,01,20,03,09,8.00
2012,01,20,03,10,5.40
2012,01,20,03,11,0.00
2012,01,20,03,12,0.00
2012,01,20,03,13,0.00
2012,01,20,03,14,0.00
2012,01,20,03,15,5.60
2012,01,20,03,16,5.10
2012,01,20,03,17,10.00
2012,01,20,03,18,8.60
2012,01,20,03,19,5.30
2012,01,20,03,20,4.70
2012,01,20,03,21,11.30
2012,01,20,03,22,10.00
2012,01,20,03,23,5.10
2012,01,20,03,24,9.00
2012,01,20,03,25,9.70
2012,01,20,03,26,5.40
2012,01,20,03,27,6.70
2012,01,20,03,28,6.10
2012,01,20,03,29,11.60
2012,01,20,03,30,8.30
2012,01,20,03,31,9.80
2012,01,20,03,32,10.60
2012,01,20,03,33,8.20
2012,01,20,03,34,11.00
2012,01,20,03,35,8.20
2012,01,20,03,36,11.30
2012,01,20,03,37,9.10
2012,01,20,03,38,9.70
2012,01,20,03,39,5.30
2012,01,20,03,40,2.60
2012,01,20,03,41,8.90
2012,01,20,03,42,9.00
2012,01,20,03,43,10.30
2012,01,20,03,44,12.90
2012,01,20,03,45,7.70
2012,01,20,03,46,9.10
2012,01,20,03,47,7.70
2012,01,20,03,48,4.10
2012,01,20,03,49,9.30
2012,01,20,03,50,7.80
2012,01,20,03,51,7.80
2012,01,20,03,52,7.10
2012,01,20,03,53,11.80
2012,01,20,03,54,11.10
2012,01,20,03,55,7.50
2012,01,20,03,56,14.20
2012,01,20,03,57,8.20
2012,01,20,03,58,9.60
2012,01,20,03,59,7.60
2012,01,20,04,00,12.60
2012,01,20,04,01,4.50
2012,01,20,04,02,5.50
2012,01,20,04,03,11.90
2012,01,20,04,04,10.00
2012,01,20,04,05,8.20
2012,01,20,04,06,8.00
2012,01,20,04,07,8.40
2012,01,20,04,08,1.50
2012,01,20,04,09,6.20
2012,01,20,04,10,8.60
2012,01,20,04,11,8.40
2012,01,20,04,12,7.30
2012,01,20,04,13,10.00
2012,01,20,04,14,9.70
2012,01,20,04,15,9.10
2012,01,20,04,16,8.90
2012,01,20,04,17,7.20
2012,01,20,04,18,6.20
2012,01,20,04,19,6.40
2012,01,20,04,20,4.80
2012,01,20,04,21,8.80
2012,01,20,04,22,11.00
2012,01,20,04,23,11.00
2012,01,20,04,24,8.60
2012,01,20,04,25,10.50
2012,01,20,04,26,7.60
2012,01,20,04,27,8.90
2012,01,20,04,28,13.90
2012,01,20,04,29,5.30
2012,01,20,04,30,8.40
2012,01,20,04,31,6.10
2012,01,20,04,32,6.40
2012,01,20,04,33,7.70
2012,01,20,04,34,9.70
2012,01,20,04,35,8.70
2012,01,20,04,36,7.40
2012,01,20,04,37,7.50
2012,01,20,04,38,9.30
2012,01,20,04,39,8.00
2012,01,20,04,40,11.00
2012,01,20,04,41,13.30
2012,01,20,04,42,8.90
2012,01,20,04,43,7.80
2012,01,20,04,44,10.30
2012,01,20,04,45,9.30
2012,01,20,04,46,10.80
2012,01,20,04,47,9.30
2012,01,20,04,48,7.60
2012,01,20,04,49,6.70
2012,01,20,04,50,8.80
2012,01,20,04,51,12.90
2012,01,20,04,52,12.10
2012,01,20,04,53,7.50
2012,01,20,04,54,11.30
2012,01,20,04,55,7.20
2012,01,20,04,56,5.40
2012,01,20,04,57,5.60
2012,01,20,04,58,6.40
2012,01,20,04,59,8.80
2012,01,20,05,00,9.90
2012,01,20,05,01,7.70
2012,01,20,05,02,7.30
2012,01,20,05,03,8.70
2012,01,20,05,04,4.50
2012,01,20,05,05,11.70
2012,01,20,05,06,6.30
2012,01,20,05,07,6.40
2012,01,20,05,08,7.00
2012,01,20,05,09,8.10
2012,01,20,05,10,15.90
2012,01,20,05,11,8.40
2012,01,20,05,12,11.00
2012,01,20,05,13,12.50
2012,01,20,05,14,10.20
2012,01,20,05,15,12.70
2012,01,20,05,16,13.10
2012,01,20,05,17,12.10
2012,01,20,05,18,10.20
2012,01,20,05,19,5.20
2012,01,20,05,20,11.60
2012,01,20,05,21,9.30
2012,01,20,05,22,15.70
2012,01,20,05,23,7.60
2012,01,20,05,24,8.40
2012,01,20,05,25,9.40
2012,01,20,05,26,10.10
2012,01,20,05,27,9.20
2012,01,20,05,28,7.80
2012,01,20,05,29,3.00
2012,01,20,05,30,6.20
2012,01,20,05,31,7.50
2012,01,20,05,32,13.20
2012,01,20,05,33,11.60
2012,01,20,05,34,10.20
2012,01,20,05,35,8.10
2012,01,20,05,36,8.90
2012,01,20,05,37,8.60
2012,01,20,05,38,12.80
2012,01,20,05,39,9.00
2012,01,20,05,40,15.10
2012,01,20,05,41,14.10
2012,01,20,05,42,13.90
2012,01,20,05,43,14.40
2012,01,20,05,44,7.80
2012,01,20,05,45,10.70
2012,01,20,05,46,10.70
2012,01,20,05,47,7.70
2012,01,20,05,48,10.70
2012,01,20,05,49,13.20
2012,01,20,05,50,11.00
2012,01,20,05,51,12.00
2012,01,20,05,52,15.70
2012,01,20,05,53,9.10
2012,01,20,05,54,6.70
2012,01,20,05,55,14.10
2012,01,20,05,56,15.30
2012,01,20,05,57,11.90
2012,01,20,05,58,9.70
2012,01,20,05,59,10.20
2012,01,20,06,00,9.70
2012,01,20,06,01,7.80
2012,01,20,06,02,9.10
2012,01,20,06,03,13.00
2012,01,20,06,04,19.30
2012,01,20,06,05,14.30
2012,01,20,06,06,14.60
2012,01,20,06,07,10.40
2012,01,20,06,08,9.90
2012,01,20,06,09,6.20
2012,01,20,06,10,13.90
2012,01,20,06,11,6.50
2012,01,20,06,12,8.40
2012,01,20,06,13,10.00
2012,01,20,06,14,10.50
2012,01,20,06,15,9.30
2012,01,20,06,16,16.80
2012,01,20,06,17,11.70
2012,01,20,06,18,14.30
2012,01,20,06,19,11.60
2012,01,20,06,20,8.90
2012,01,20,06,21,6.60
2012,01,20,06,22,12.60
2012,01,20,06,23,6.40
2012,01,20,06,24,6.60
2012,01,20,06,25,8.70
2012,01,20,06,26,11.50
2012,01,20,06,27,5.80
2012,01,20,06,28,11.30
2012,01,20,06,29,12.60
2012,01,20,06,30,10.80
2012,01,20,06,31,7.40
2012,01,20,06,32,9.70
2012,01,20,06,33,12.10
2012,01,20,06,34,7.90
2012,01,20,06,35,11.70
2012,01,20,06,36,7.50
2012,01,20,06,37,8.70
2012,01,20,06,38,13.00
2012,01,20,06,39,14.60
2012,01,20,06,40,10.60
2012,01,20,06,41,10.50
2012,01,20,06,42,13.60
2012,01,20,06,43,5.30
2012,01,20,06,44,8.60
2012,01,20,06,45,12.70
2012,01,20,06,46,13.30
2012,01,20,06,47,13.30
2012,01,20,06,48,11.80
2012,01,20,06,49,13.60
2012,01,20,06,50,12.40
2012,01,20,06,51,8.00
2012,01,20,06,52,2.50
2012,01,20,06,53,10.60
2012,01,20,06,54,10.80
2012,01,20,06,55,7.30
2012,01,20,06,56,9.70
2012,01,20,06,57,12.40
2012,01,20,06,58,12.50
2012,01,20,06,59,16.60
2012,01,20,07,00,15.60
2012,01,20,07,01,10.20
2012,01,20,07,02,10.00
2012,01,20,07,03,10.50
2012,01,20,07,04,13.30
2012,01,20,07,05,14.00
2012,01,20,07,06,12.30
2012,01,20,07,07,8.70
2012,01,20,07,08,4.70
2012,01,20,07,09,11.70
2012,01,20,07,10,13.60
2012,01,20,07,11,11.10
2012,01,20,07,12,8.90
2012,01,20,07,13,7.40
2012,01,20,07,14,14.40
2012,01,20,07,15,11.00
2012,01,20,07,16,10.30
2012,01,20,07,17,11.90
2012,01,20,07,18,15.40
2012,01,20,07,19,9.50
2012,01,20,07,20,9.60
2012,01,20,07,21,6.90
2012,01,20,07,22,8.10
2012,01,20,07,23,5.70
2012,01,20,07,24,10.80
2012,01,20,07,25,10.40
2012,01,20,07,26,7.00
2012,01,20,07,27,10.30
2012,01,20,07,28,10.50
2012,01,20,07,29,7.20
2012,01,20,07,30,12.60
2012,01,20,07,31,10.50
2012,01,20,07,32,18.00
2012,01,20,07,33,13.60
2012,01,20,07,34,9.70
2012,01,20,07,35,11.00
2012,01,20,07,36,9.10
2012,01,20,07,37,10.30
2012,01,20,07,38,9.70
2012,01,20,07,39,3.70
2012,01,20,07,40,6.00
2012,01,20,07,41,13.00
2012,01,20,07,42,10.20
2012,01,20,07,43,10.50
2012,01,20,07,44,3.80
2012,01,20,07,45,11.80
2012,01,20,07,46,11.90
2012,01,20,07,47,12.70
2012,01,20,07,48,13.50
2012,01,20,07,49,9.80
2012,01,20,07,50,11.10
2012,01,20,07,51,9.70
2012,01,20,07,52,4.40
2012,01,20,07,53,10.30
2012,01,20,07,54,12.30
2012,01,20,07,55,15.30
2012,01,20,07,56,11.50
2012,01,20,07,57,8.40
2012,01,20,07,58,13.40
2012,01,20,07,59,8.50
2012,01,20,08,00,10.20
2012,01,20,08,01,4.80
2012,01,20,08,02,11.70
2012,01,20,08,03,13.50
2012,01,20,08,04,6.40
2012,01,20,08,05,14.30
2012,01,20,08,06,11.00
2012,01,20,08,07,6.60
2012,01,20,08,08,11.20
2012,01,20,08,09,8.20
2012,01,20,08,10,5.40
2012,01,20,08,11,8.30
2012,01,20,08,12,8.20
2012,01,20,08,13,7.70
2012,01,20,08,14,11.00
2012,01,20,08,15,13.50
2012,01,20,08,16,13.10
2012,01,20,08,17,12.50
2012,01,20,08,18,7.50
2012,01,20,08,19,13.20
2012,01,20,08,20,4.10
2012,01,20,08,21,5.50
2012,01,20,08,22,9.70
2012,01,20,08,23,7.80
2012,01,20,08,24,8.50
2012,01,20,08,25,12.10
2012,01,20,08,26,11.70
2012,01,20,08,27,8.40
2012,01,20,08,28,6.50
2012,01,20,08,29,8.00
2012,01,20,08,30,13.10
2012,01,20,08,31,6.50
2012,01,20,08,32,8.70
2012,01,20,08,33,9.20
2012,01,20,08,34,10.90
2012,01,20,08,35,12.90
2012,01,20,08,36,13.30
2012,01,20,08,37,4.90
2012,01,20,08,38,5.60
2012,01,20,08,39,11.30
2012,01,20,08,40,8.50
2012,01,20,08,41,10.40
2012,01,20,08,42,4.50
2012,01,20,08,43,8.80
2012,01,20,08,44,8.40
2012,01,20,08,45,8.10
2012,01,20,08,46,9.00
2012,01,20,08,47,6.00
2012,01,20,08,48,10.50
2012,01,20,08,49,10.10
2012,01,20,08,50,6.20
2012,01,20,08,51,4.90
2012,01,20,08,52,11.20
2012,01,20,08,53,8.80
2012,01,20,08,54,5.70
2012,01,20,08,55,10.00
2012,01,20,08,56,10.00
2012,01,20,08,57,8.00
2012,01,20,08,58,13.40
2012,01,20,08,59,9.40
2012,01,20,09,00,9.50
2012,01,20,09,01,9.40
2012,01,20,09,02,9.00
2012,01,20,09,03,13.20
2012,01,20,09,04,5.40
2012,01,20,09,05,12.50
2012,01,20,09,06,10.90
2012,01,20,09,07,5.80
2012,01,20,09,08,6.10
2012,01,20,09,09,9.70
2012,01,20,09,10,5.30
2012,01,20,09,11,11.90
2012,01,20,09,12,11.60
2012,01,20,09,13,14.20
2012,01,20,09,14,9.70
2012,01,20,09,15,11.50
2012,01,20,09,16,8.80
2012,01,20,09,17,11.10
2012,01,20,09,18,11.40
2012,01,20,09,19,10.30
2012,01,20,09,20,9.70
2012,01,20,09,21,5.10
2012,01,20,09,22,9.60
2012,01,20,09,23,15.60
2012,01,20,09,24,10.10
2012,01,20,09,25,14.10
2012,01,20,09,26,10.70
2012,01,20,09,27,14.90
2012,01,20,09,28,13.80
2012,01,20,09,29,12.90
2012,01,20,09,30,14.40
2012,01,20,09,31,13.30
2012,01,20,09,32,13.00
2012,01,20,09,33,15.90
2012,01,20,09,34,5.40
2012,01,20,09,35,15.70
2012,01,20,09,36,11.50
2012,01,20,09,37,8.90
2012,01,20,09,38,6.10
2012,01,20,09,39,4.70
2012,01,20,09,40,15.80
2012,01,20,09,41,13.50
2012,01,20,09,42,7.90
2012,01,20,09,43,7.60
2012,01,20,09,44,12.30
2012,01,20,09,45,16.70
2012,01,20,09,46,11.40
2012,01,20,09,47,14.40
2012,01,20,09,48,8.30
2012,01,20,09,49,14.30
2012,01,20,09,50,11.00
2012,01,20,09,51,9.30
2012,01,20,09,52,13.00
2012,01,20,09,53,14.90
2012,01,20,09,54,10.70
2012,01,20,09,55,11.50
2012,01,20,09,56,13.30
2012,01,20,09,57,11.40
2012,01,20,09,58,11.00
2012,01,20,09,59,9.50
2012,01,20,10,00,5.70
2012,01,20,10,01,13.20
2012,01,20,10,02,9.20
2012,01,20,10,03,14.50
2012,01,20,10,04,9.00
2012,01,20,10,05,9.00
2012,01,20,10,06,13.80
2012,01,20,10,07,6.00
2012,01,20,10,08,9.20
2012,01,20,10,09,7.40
2012,01,20,10,10,6.00
2012,01,20,10,11,10.80
2012,01,20,10,12,15.80
2012,01,20,10,13,16.20
2012,01,20,10,14,14.80
2012,01,20,10,15,11.30
2012,01,20,10,16,8.10
2012,01,20,10,17,11.70
2012,01,20,10,18,10.70
2012,01,20,10,19,12.90
2012,01,20,10,20,10.40
2012,01,20,10,21,8.30
2012,01,20,10,22,9.70
2012,01,20,10,23,7.10
2012,01,20,10,24,10.80
2012,01,20,10,25,14.60
2012,01,20,10,26,11.20
2012,01,20,10,27,8.70
2012,01,20,10,28,8.00
2012,01,20,10,29,7.70
2012,01,20,10,30,13.90
2012,01,20,10,31,11.30
2012,01,20,10,32,8.70
2012,01,20,10,33,9.10
2012,01,20,10,34,9.30
2012,01,20,10,35,10.20
2012,01,20,10,36,4.50
2012,01,20,10,37,10.80
2012,01,20,10,38,11.00
2012,01,20,10,39,13.60
2012,01,20,10,40,12.00
2012,01,20,10,41,8.10
2012,01,20,10,42,7.50
2012,01,20,10,43,10.90
2012,01,20,10,44,9.50
2012,01,20,10,45,8.70
2012,01,20,10,46,8.90
2012,01,20,10,47,13.60
2012,01,20,10,48,8.30
2012,01,20,10,49,14.90
2012,01,20,10,50,5.50
2012,01,20,10,51,4.00
2012,01,20,10,52,8.50
2012,01,20,10,53,11.00
2012,01,20,10,54,8.60
2012,01,20,10,55,13.80
2012,01,20,10,56,9.00
2012,01,20,10,57,10.00
2012,01,20,10,58,7.70
2012,01,20,10,59,12.90
2012,01,20,11,00,9.70
2012,01,20,11,01,9.80
2012,01,20,11,02,11.90
2012,01,20,11,03,11.30
2012,01,20,11,04,11.50
2012,01,20,11,05,8.10
2012,01,20,11,06,9.60
2012,01,20,11,07,5.60
2012,01,20,11,08,4.40
2012,01,20,11,09,11.30
2012,01,20,11,10,9.70
2012,01,20,11,11,8.40
2012,01,20,11,12,15.30
2012,01,20,11,13,11.60
2012,01,20,11,14,15.90
2012,01,20,11,15,13.50
2012,01,20,11,16,15.30
2012,01,20,11,17,5.70
2012,01,20,11,18,8.80
2012,01,20,11,19,13.30
2012,01,20,11,20,5.40
2012,01,20,11,21,10.70
2012,01,20,11,22,10.90
2012,01,20,11,23,8.80
2012,01,20,11,24,8.00
2012,01,20,11,25,6.20
2012,01,20,11,26,8.30
2012,01,20,11,27,7.10
2012,01,20,11,28,9.70
2012,01,20,11,29,2.10
2012,01,20,11,30,3.40
2012,01,20,11,31,9.70
2012,01,20,11,32,9.30
2012,01,20,11,33,11.50
2012,01,20,11,34,12.20
2012,01,20,11,35,11.70
2012,01,20,11,36,6.70
2012,01,20,11,37,5.50
2012,01,20,11,38,8.70
2012,01,20,11,39,10.20
2012,01,20,11,40,8.10
2012,01,20,11,41,8.70
2012,01,20,11,42,8.60
2012,01,20,11,43,6.40
2012,01,20,11,44,13.40
2012,01,20,11,45,6.00
2012,01,20,11,46,2.50
2012,01,20,11,47,7.40
2012,01,20,11,48,11.20
2012,01,20,11,49,8.60
2012,01,20,11,50,9.50
2012,01,20,11,51,12.80
2012,01,20,11,52,7.00
2012,01,20,11,53,5.00
2012,01,20,11,54,8.70
2012,01,20,11,55,11.30
2012,01,20,11,56,3.20
2012,01,20,11,57,6.40
2012,01,20,11,58,7.00
2012,01,20,11,59,7.00
2012,01,20,12,00,4.40
2012,01,20,12,01,7.60
2012,01,20,12,02,9.70
2012,01,20,12,03,4.00
2012,01,20,12,04,3.10
2012,01,20,12,05,9.50
2012,01,20,12,06,10.60
2012,01,20,12,07,7.90
2012,01,20,12,08,5.60
2012,01,20,12,09,9.80
2012,01,20,12,10,7.30
2012,01,20,12,11,9.20
2012,01,20,12,12,15.20
2012,01,20,12,13,15.00
2012,01,20,12,14,7.70
2012,01,20,12,15,10.10
2012,01,20,12,16,11.90
2012,01,20,12,17,11.30
2012,01,20,12,18,6.90
2012,01,20,12,19,12.20
2012,01,20,12,20,13.40
2012,01,20,12,21,9.00
2012,01,20,12,22,6.10
2012,01,20,12,23,6.30
2012,01,20,12,24,2.80
2012,01,20,12,25,15.50
2012,01,20,12,26,13.00
2012,01,20,12,27,17.50
2012,01,20,12,28,10.30
2012,01,20,12,29,12.50
2012,01,20,12,30,6.90
2012,01,20,12,31,11.90
2012,01,20,12,32,17.40
2012,01,20,12,33,13.20
2012,01,20,12,34,11.50
2012,01,20,12,35,12.10
2012,01,20,12,36,7.90
2012,01,20,12,37,7.30
2012,01,20,12,38,6.20
2012,01,20,12,39,13.50
2012,01,20,12,40,12.70
2012,01,20,12,41,13.20
2012,01,20,12,42,15.60
2012,01,20,12,43,18.90
2012,01,20,12,44,20.10
2012,01,20,12,45,14.60
2012,01,20,12,46,13.90
2012,01,20,12,47,16.80
2012,01,20,12,48,15.80
2012,01,20,12,49,19.30
2012,01,20,12,50,13.30
2012,01,20,12,51,17.90
2012,01,20,12,52,16.90
2012,01,20,12,53,21.20
2012,01,20,12,54,22.40
2012,01,20,12,55,16.80
2012,01,20,12,56,18.30
2012,01,20,12,57,15.20
2012,01,20,12,58,19.80
2012,01,20,12,59,20.60
2012,01,20,13,00,17.70
2012,01,20,13,01,17.40
2012,01,20,13,02,21.20
2012,01,20,13,03,19.20
2012,01,20,13,04,16.70
2012,01,20,13,05,18.90
2012,01,20,13,06,10.10
2012,01,20,13,07,11.20
2012,01,20,13,08,19.80
2012,01,20,13,09,15.90
2012,01,20,13,10,17.10
2012,01,20,13,11,14.00
2012,01,20,13,12,16.80
2012,01,20,13,13,16.30
2012,01,20,13,14,13.50
2012,01,20,13,15,17.80
2012,01,20,13,16,16.90
2012,01,20,13,17,10.70
2012,01,20,13,18,10.30
2012,01,20,13,19,10.00
2012,01,20,13,20,10.80
2012,01,20,13,21,12.50
2012,01,20,13,22,11.20
2012,01,20,13,23,17.60
2012,01,20,13,24,20.10
2012,01,20,13,25,8.60
2012,01,20,13,26,9.70
2012,01,20,13,27,10.30
2012,01,20,13,28,18.30
2012,01,20,13,29,12.10
2012,01,20,13,30,11.30
2012,01,20,13,31,8.70
2012,01,20,13,32,10.40
2012,01,20,13,33,11.30
2012,01,20,13,34,16.10
2012,01,20,13,35,16.50
2012,01,20,13,36,13.10
2012,01,20,13,37,20.60
2012,01,20,13,38,8.80
2012,01,20,13,39,19.80
2012,01,20,13,40,5.60
2012,01,20,13,41,17.40
2012,01,20,13,42,11.00
2012,01,20,13,43,6.90
2012,01,20,13,44,11.30
2012,01,20,13,45,17.80
2012,01,20,13,46,12.40
2012,01,20,13,47,14.70
2012,01,20,13,48,10.70
2012,01,20,13,49,8.50
2012,01,20,13,50,12.30
2012,01,20,13,51,15.30
2012,01,20,13,52,12.30
2012,01,20,13,53,9.20
2012,01,20,13,54,7.70
2012,01,20,13,55,11.00
2012,01,20,13,56,10.40
2012,01,20,13,57,14.40
2012,01,20,13,58,14.90
2012,01,20,13,59,20.30
2012,01,20,14,00,17.90
2012,01,20,14,01,11.60
2012,01,20,14,02,15.20
2012,01,20,14,03,13.50
2012,01,20,14,04,11.00
2012,01,20,14,05,9.40
2012,01,20,14,06,12.50
2012,01,20,14,07,14.30
2012,01,20,14,08,13.30
2012,01,20,14,09,6.50
2012,01,20,14,10,17.10
2012,01,20,14,11,12.50
2012,01,20,14,12,12.10
2012,01,20,14,13,7.00
2012,01,20,14,14,8.90
2012,01,20,14,15,23.50
2012,01,20,14,16,10.30
2012,01,20,14,17,17.40
2012,01,20,14,18,18.40
2012,01,20,14,19,16.90
2012,01,20,14,20,20.30
2012,01,20,14,21,21.60
2012,01,20,14,22,19.20
2012,01,20,14,23,10.90
2012,01,20,14,24,19.40
2012,01,20,14,25,13.40
2012,01,20,14,26,12.60
2012,01,20,14,27,11.70
2012,01,20,14,28,13.30
2012,01,20,14,29,12.70
2012,01,20,14,30,11.70
2012,01,20,14,31,7.70
2012,01,20,14,32,9.20
2012,01,20,14,33,12.10
2012,01,20,14,34,13.70
2012,01,20,14,35,15.60
2012,01,20,14,36,14.90
2012,01,20,14,37,14.50
2012,01,20,14,38,20.90
2012,01,20,14,39,15.80
2012,01,20,14,40,14.50
2012,01,20,14,41,15.50
2012,01,20,14,42,12.80
2012,01,20,14,43,18.40
2012,01,20,14,44,16.80
2012,01,20,14,45,10.50
2012,01,20,14,46,22.10
2012,01,20,14,47,19.90
2012,01,20,14,48,18.70
2012,01,20,14,49,17.60
2012,01,20,14,50,11.60
2012,01,20,14,51,9.70
2012,01,20,14,52,17.90
2012,01,20,14,53,20.80
2012,01,20,14,54,10.80
2012,01,20,14,55,11.70
2012,01,20,14,56,6.90
2012,01,20,14,57,12.30
2012,01,20,14,58,19.30
2012,01,20,14,59,9.70
2012,01,20,15,00,11.20
2012,01,20,15,01,6.40
2012,01,20,15,02,9.50
2012,01,20,15,03,10.50
2012,01,20,15,04,5.20
2012,01,20,15,05,10.80
2012,01,20,15,06,11.30
2012,01,20,15,07,15.70
2012,01,20,15,08,7.70
2012,01,20,15,09,7.70
2012,01,20,15,10,8.80
2012,01,20,15,11,10.60
2012,01,20,15,12,13.70
2012,01,20,15,13,13.60
2012,01,20,15,14,9.10
2012,01,20,15,15,16.50
2012,01,20,15,16,11.80
2012,01,20,15,17,15.40
2012,01,20,15,18,9.90
2012,01,20,15,19,11.00
2012,01,20,15,20,14.60
2012,01,20,15,21,14.60
2012,01,20,15,22,10.10
2012,01,20,15,23,12.70
2012,01,20,15,24,9.10
2012,01,20,15,25,9.80
2012,01,20,15,26,9.00
2012,01,20,15,27,8.30
2012,01,20,15,28,15.90
2012,01,20,15,29,12.00
2012,01,20,15,30,13.10
2012,01,20,15,31,17.50
2012,01,20,15,32,14.50
2012,01,20,15,33,14.10
2012,01,20,15,34,16.60
2012,01,20,15,35,9.60
2012,01,20,15,36,7.40
2012,01,20,15,37,18.20
2012,01,20,15,38,13.70
2012,01,20,15,39,7.70
2012,01,20,15,40,14.20
2012,01,20,15,41,18.30
2012,01,20,15,42,13.10
2012,01,20,15,43,9.10
2012,01,20,15,44,13.90
2012,01,20,15,45,9.50
2012,01,20,15,46,11.20
2012,01,20,15,47,8.80
2012,01,20,15,48,16.20
2012,01,20,15,49,8.70
2012,01,20,15,50,10.50
2012,01,20,15,51,10.80
2012,01,20,15,52,15.40
2012,01,20,15,53,15.90
2012,01,20,15,54,15.70
2012,01,20,15,55,17.70
2012,01,20,15,56,14.70
2012,01,20,15,57,12.10
2012,01,20,15,58,13.60
2012,01,20,15,59,17.30
2012,01,20,16,00,12.00
2012,01,20,16,01,12.60
2012,01,20,16,02,12.90
2012,01,20,16,03,14.00
2012,01,20,16,04,14.60
2012,01,20,16,05,17.60
2012,01,20,16,06,10.80
2012,01,20,16,07,16.90
2012,01,20,16,08,12.60
2012,01,20,16,09,5.30
2012,01,20,16,10,10.30
2012,01,20,16,11,17.80
2012,01,20,16,12,16.90
2012,01,20,16,13,18.20
2012,01,20,16,14,14.40
2012,01,20,16,15,14.30
2012,01,20,16,16,13.60
2012,01,20,16,17,13.40
2012,01,20,16,18,14.80
2012,01,20,16,19,11.20
2012,01,20,16,20,10.60
2012,01,20,16,21,14.00
2012,01,20,16,22,16.20
2012,01,20,16,23,15.90
2012,01,20,16,24,16.30
2012,01,20,16,25,15.60
2012,01,20,16,26,16.80
2012,01,20,16,27,19.20
2012,01,20,16,28,17.10
2012,01,20,16,29,10.10
2012,01,20,16,30,14.20
2012,01,20,16,31,11.40
2012,01,20,16,32,10.90
2012,01,20,16,33,16.00
2012,01,20,16,34,12.10
2012,01,20,16,35,16.90
2012,01,20,16,36,12.70
2012,01,20,16,37,15.60
2012,01,20,16,38,19.10
2012,01,20,16,39,12.20
2012,01,20,16,40,21.00
2012,01,20,16,41,21.20
2012,01,20,16,42,15.80
2012,01,20,16,43,14.00
2012,01,20,16,44,11.70
2012,01,20,16,45,17.60
2012,01,20,16,46,13.70
2012,01,20,16,47,20.30
2012,01,20,16,48,17.50
2012,01,20,16,49,17.10
2012,01,20,16,50,18.20
2012,01,20,16,51,11.10
2012,01,20,16,52,15.90
2012,01,20,16,53,12.40
2012,01,20,16,54,9.40
2012,01,20,16,55,17.50
2012,01,20,16,56,10.20
2012,01,20,16,57,15.20
2012,01,20,16,58,17.00
2012,01,20,16,59,14.60
2012,01,20,17,00,13.30
2012,01,20,17,01,12.90
2012,01,20,17,02,19.40
2012,01,20,17,03,18.20
2012,01,20,17,04,13.90
2012,01,20,17,05,13.90
2012,01,20,17,06,19.70
2012,01,20,17,07,19.80
2012,01,20,17,08,15.90
2012,01,20,17,09,11.00
2012,01,20,17,10,12.60
2012,01,20,17,11,17.50
2012,01,20,17,12,16.90
2012,01,20,17,13,15.30
2012,01,20,17,14,6.60
2012,01,20,17,15,12.70
2012,01,20,17,16,8.80
2012,01,20,17,17,15.60
2012,01,20,17,18,17.20
2012,01,20,17,19,13.10
2012,01,20,17,20,12.30
2012,01,20,17,21,22.80
2012,01,20,17,22,12.60
2012,01,20,17,23,10.40
2012,01,20,17,24,15.70
2012,01,20,17,25,8.70
2012,01,20,17,26,11.60
2012,01,20,17,27,19.20
2012,01,20,17,28,7.50
2012,01,20,17,29,12.90
2012,01,20,17,30,8.80
2012,01,20,17,31,14.70
2012,01,20,17,32,12.60
2012,01,20,17,33,10.60
2012,01,20,17,34,7.30
2012,01,20,17,35,12.40
2012,01,20,17,36,11.30
2012,01,20,17,37,9.30
2012,01,20,17,38,16.20
2012,01,20,17,39,18.20
2012,01,20,17,40,9.70
2012,01,20,17,41,18.10
2012,01,20,17,42,12.70
2012,01,20,17,43,21.60
2012,01,20,17,44,7.80
2012,01,20,17,45,3.60